Overview Statistics Trail Chart Weather Telemetry Raw packets
 

This is the latest recevied weather packets stored in our database for station/object EA7OC-10. If no packets are shown the sender has not sent any weather packets the latest 10 day(s).

<< 32 33 34 35 36 37 38 >>
Time Temp. Humidity Pressure Rain* Wind** Luminosity Snow
1787836968 31.11° C 34% 1017 hPa - - - -
1787836068 30.56° C 35% 1016.9 hPa - - - -
1787835168 30° C 36% 1016.9 hPa - - - -
1787834268 30° C 36% 1016.9 hPa - - - -
1787833368 30.56° C 36% 1016.8 hPa - - - -
1787832468 30.56° C 36% 1016.9 hPa - - - -
1787831568 31.11° C 37% 1016.9 hPa - - - -
1787830668 30.56° C 37% 1016.9 hPa - - - -
1787829768 31.11° C 37% 1017.1 hPa - - - -
1787828867 30° C 37% 1017.1 hPa - - - -
1787827967 30° C 37% 1017.2 hPa - - - -
1787827064 30.56° C 36% 1017.1 hPa - - - -
1787826164 31.67° C 37% 1017 hPa - - - -
1787825264 32.22° C 38% 1017 hPa - - - -
1787824364 32.22° C 38% 1016.9 hPa - - - -
1787823464 31.11° C 37% 1016.7 hPa - - - -
1787822564 32.22° C 36% 1016.7 hPa - - - -
1787821664 32.22° C 37% 1016.6 hPa - - - -
1787820763 32.22° C 39% 1016.6 hPa - - - -
1787819863 31.11° C 38% 1016.3 hPa - - - -
1787818963 30.56° C 38% 1016.5 hPa - - - -
1787818059 30° C 39% 1016.4 hPa - - - -
1787817159 28.89° C 39% 1016.3 hPa - - - -
1787816259 27.78° C 40% 1016.2 hPa - - - -
1787815359 26.11° C 42% 1016 hPa - - - -

* Rain since midnight (hover to see other rain measurements)
** Current wind speed in m/s (hover to see current wind gust speed)